DW6757 Weather Reports


Display with metric or nautical units.
time (UTC)temp
F
wind
direction
speed
MPH
gust
MPH
rain 1hr
in
rain 24hr
in
rain mn
in
humidity
%
barometer
mb
20260831164005 92 126 4.0 11.0 0.00 0.00 0.00 58 1016.4
20260831163505 92 121 4.0 11.0 0.00 0.00 0.00 59 1016.5
20260831163026 92 127 3.0 10.0 0.00 0.00 0.00 59 1016.6
20260831162505 91 118 3.0 10.0 0.00 0.00 0.00 60 1016.5
20260831162006 91 135 3.0 7.0 0.00 0.00 0.00 61 1016.4
20260831161505 90 174 3.0 7.0 0.00 0.00 0.00 63 1016.5
20260831161004 90 193 4.0 9.0 0.00 0.00 0.00 64 1016.6
20260831160505 89 196 4.0 9.0 0.00 0.00 0.00 64 1016.6
20260831160004 89 183 4.0 11.0 0.00 0.00 0.00 64 1016.7
20260831155526 89 168 4.0 11.0 0.00 0.00 0.00 65 1016.5
20260831155005 89 175 4.0 10.0 0.00 0.00 0.00 66 1016.6
20260831154505 88 177 4.0 8.0 0.00 0.00 0.00 67 1016.6
20260831154005 88 160 4.0 8.0 0.00 0.00 0.00 67 1016.6
20260831153505 87 164 4.0 8.0 0.00 0.00 0.00 70 1016.6
20260831153005 86 176 5.0 9.0 0.00 0.00 0.00 71 1016.6
20260831152504 86 189 5.0 10.0 0.00 0.00 0.00 73 1016.5
20260831152005 86 188 4.0 10.0 0.00 0.00 0.00 75 1016.5
20260831151505 84 170 4.0 9.0 0.00 0.00 0.00 76 1016.5
20260831151026 84 175 4.0 9.0 0.00 0.00 0.00 76 1016.5
20260831150505 84 188 5.0 9.0 0.00 0.00 0.00 77 1016.5
20260831150005 85 197 4.0 9.0 0.00 0.00 0.00 77 1016.3
20260831145505 84 199 4.0 9.0 0.00 0.00 0.00 79 1016.3
20260831145005 84 184 4.0 10.0 0.00 0.00 0.00 80 1016.3
20260831144505 84 172 3.0 10.0 0.00 0.00 0.00 80 1016.2
20260831144005 83 163 2.0 6.0 0.00 0.00 0.00 82 1016.2
20260831143505 83 157 2.0 7.0 0.00 0.00 0.00 83 1016.3
20260831143005 83 172 2.0 7.0 0.00 0.00 0.00 84 1016.2
20260831142504 82 152 2.0 7.0 0.00 0.00 0.00 85 1016.1
20260831142004 82 123 2.0 7.0 0.00 0.00 0.00 85 1016.2
20260831141505 82 113 0.0 2.0 0.00 0.00 0.00 87 1016.2
20260831141005 81 114 0.0 2.0 0.00 0.00 0.00 88 1016.2
20260831140526 81 105 0.0 2.0 0.00 0.00 0.00 89 1016.2
20260831140005 80 79 0.0 2.0 0.00 0.00 0.00 91 1016.1
20260831135505 79 79 0.0 2.0 0.00 0.00 0.00 92 1016.0
20260831135005 79 79 1.0 2.0 0.00 0.00 0.00 93 1016.0
20260831134504 78 79 1.0 2.0 0.00 0.00 0.00 94 1016.0
20260831134004 78 79 1.0 3.0 0.00 0.00 0.00 94 1016.0
20260831133505 77 80 1.0 3.0 0.00 0.00 0.00 94 1016.1
20260831133005 77 80 1.0 3.0 0.00 0.00 0.00 94 1016.0
20260831132504 76 80 0.0 2.0 0.00 0.00 0.00 94 1016.0
20260831132005 76 80 1.0 4.0 0.00 0.00 0.00 94 1015.9
20260831131505 76 79 2.0 4.0 0.00 0.00 0.00 94 1015.9
20260831131025 76 78 1.0 4.0 0.00 0.00 0.00 93 1015.9
20260831130505 76 0 0.0 0.0 0.00 0.00 0.00 93 1015.8
20260831130005 76 0 0.0 0.0 0.00 0.00 0.00 93 1015.8
20260831125504 76 0 0.0 0.0 0.00 0.00 0.00 93 1015.7
20260831125005 76 0 0.0 0.0 0.00 0.00 0.00 93 1015.8
20260831124504 75 0 0.0 0.0 0.00 0.00 0.00 93 1015.6
20260831124005 75 0 0.0 0.0 0.00 0.00 0.00 93 1015.7
20260831123505 75 0 0.0 0.0 0.00 0.00 0.00 93 1015.5
20260831123005 75 0 0.0 0.0 0.00 0.00 0.00 93 1015.5
20260831122504 75 0 0.0 0.0 0.00 0.00 0.00 93 1015.6
20260831122025 75 0 0.0 0.0 0.00 0.00 0.00 92 1015.4
20260831121505 74 0 0.0 0.0 0.00 0.00 0.00 92 1015.3
20260831121026 74 0 0.0 0.0 0.00 0.00 0.00 92 1015.4
20260831120504 74 0 0.0 0.0 0.00 0.00 0.00 92 1015.5
20260831120005 74 0 0.0 0.0 0.00 0.00 0.00 91 1015.5
20260831115504 75 0 0.0 0.0 0.00 0.00 0.00 92 1015.4
20260831115004 75 0 0.0 0.0 0.00 0.00 0.00 92 1015.4
20260831114526 76 0 0.0 0.0 0.00 0.00 0.00 92 1015.4
20260831114005 76 78 0.0 1.0 0.00 0.00 0.00 92 1015.3
20260831113526 76 78 0.0 1.0 0.00 0.00 0.00 93 1015.4
20260831113004 75 0 0.0 0.0 0.00 0.00 0.00 93 1015.3
20260831112505 75 0 0.0 0.0 0.00 0.00 0.00 92 1015.3
20260831112005 75 0 0.0 0.0 0.00 0.00 0.00 91 1015.3
20260831111504 75 0 0.0 0.0 0.00 0.00 0.00 92 1015.2
20260831111004 75 0 0.0 0.0 0.00 0.00 0.00 92 1015.3
20260831110504 75 0 0.0 0.0 0.00 0.00 0.00 92 1015.1
20260831110005 75 0 0.0 0.0 0.00 0.00 0.00 91 1015.3
20260831105505 75 0 0.0 0.0 0.00 0.00 0.00 90 1015.2
20260831105004 75 0 0.0 0.0 0.00 0.00 0.00 90 1015.1
20260831104505 75 0 0.0 0.0 0.00 0.00 0.00 90 1015.1
20260831104004 76 0 0.0 0.0 0.00 0.00 0.00 90 1015.1
20260831103504 76 0 0.0 0.0 0.00 0.00 0.00 91 1015.1
20260831103005 76 78 0.0 1.0 0.00 0.00 0.00 91 1015.2
20260831102505 76 78 0.0 1.0 0.00 0.00 0.00 91 1015.2
20260831102026 76 0 0.0 0.0 0.00 0.00 0.00 91 1015.3
20260831101504 76 0 0.0 0.0 0.00 0.00 0.00 91 1015.3
20260831101025 77 0 0.0 0.0 0.00 0.00 0.00 91 1015.2
20260831100505 77 0 0.0 0.0 0.00 0.00 0.00 92 1015.2
20260831100005 77 0 0.0 0.0 0.00 0.00 0.00 91 1015.3
20260831095504 77 0 0.0 0.0 0.00 0.00 0.00 91 1015.3
20260831095004 77 0 0.0 0.0 0.00 0.00 0.00 91 1015.3
20260831094505 77 0 0.0 0.0 0.00 0.00 0.00 91 1015.3
20260831094005 77 0 0.0 0.0 0.00 0.00 0.00 91 1015.2
20260831093504 77 0 0.0 0.0 0.00 0.00 0.00 91 1015.2
20260831093005 77 0 0.0 0.0 0.00 0.00 0.00 91 1015.2
20260831092504 77 0 0.0 0.0 0.00 0.00 0.00 91 1015.2
20260831092026 77 0 0.0 0.0 0.00 0.00 0.00 91 1015.2
20260831091526 77 0 0.0 0.0 0.00 0.00 0.00 91 1015.2
20260831091005 77 0 0.0 0.0 0.00 0.00 0.00 90 1015.2
20260831090504 77 0 0.0 0.0 0.00 0.00 0.00 90 1015.2
20260831090004 77 0 0.0 0.0 0.00 0.00 0.00 90 1015.2
20260831085505 77 0 0.0 0.0 0.00 0.00 0.00 90 1015.3
20260831085004 77 0 0.0 0.0 0.00 0.00 0.00 90 1015.2
20260831084505 77 0 0.0 0.0 0.00 0.00 0.00 90 1015.3
20260831084004 77 0 0.0 0.0 0.00 0.00 0.00 89 1015.3
20260831083526 77 0 0.0 0.0 0.00 0.00 0.00 89 1015.3
20260831083004 77 0 0.0 0.0 0.00 0.00 0.00 89 1015.2
20260831082505 77 0 0.0 0.0 0.00 0.00 0.00 89 1015.3
20260831082026 77 0 0.0 0.0 0.00 0.00 0.00 88 1015.4
20260831081504 77 0 0.0 0.0 0.00 0.00 0.00 88 1015.4
20260831081004 78 0 0.0 0.0 0.00 0.00 0.00 88 1015.4
20260831080504 78 0 0.0 0.0 0.00 0.00 0.00 88 1015.4
20260831080004 78 0 0.0 0.0 0.00 0.00 0.00 88 1015.4
20260831075504 78 0 0.0 0.0 0.00 0.00 0.00 87 1015.4
20260831075004 78 0 0.0 0.0 0.00 0.00 0.00 87 1015.4
20260831074504 78 0 0.0 0.0 0.00 0.00 0.00 87 1015.3
20260831074005 78 0 0.0 0.0 0.00 0.00 0.00 87 1015.3
20260831073504 78 78 0.0 1.0 0.00 0.00 0.00 87 1015.4
20260831073025 78 78 0.0 1.0 0.00 0.00 0.00 87 1015.3
20260831072504 78 78 0.0 1.0 0.00 0.00 0.00 86 1015.3
20260831072004 79 78 0.0 1.0 0.00 0.00 0.00 86 1015.4
20260831071505 79 79 0.0 2.0 0.00 0.00 0.00 86 1015.4
20260831071004 79 111 0.0 2.0 0.00 0.00 0.00 86 1015.4
20260831070504 79 163 0.0 2.0 0.00 0.00 0.00 86 1015.4
20260831070004 79 173 0.0 2.0 0.00 0.00 0.00 85 1015.5
20260831065504 79 169 1.0 4.0 0.00 0.00 0.00 85 1015.4
20260831065004 79 169 1.0 4.0 0.00 0.00 0.00 85 1015.4
20260831064505 79 167 1.0 3.0 0.00 0.00 0.00 85 1015.4
20260831064004 80 186 2.0 5.0 0.00 0.00 0.00 84 1015.4
20260831063504 80 185 2.0 5.0 0.00 0.00 0.00 84 1015.4
20260831063004 80 170 2.0 6.0 0.00 0.00 0.00 84 1015.4
20260831062504 80 166 2.0 6.0 0.00 0.00 0.00 83 1015.3
20260831062004 80 161 3.0 7.0 0.00 0.00 0.00 83 1015.4
20260831061506 80 162 4.0 8.0 0.00 0.00 0.00 83 1015.4
20260831061004 80 165 3.0 8.0 0.00 0.00 0.00 82 1015.3
20260831060504 80 167 3.0 7.0 0.00 0.00 0.00 82 1015.2
20260831060004 80 162 4.0 10.0 0.00 0.00 0.00 81 1015.2
20260831055504 81 159 4.0 10.0 0.00 0.00 0.00 81 1015.3
20260831055004 81 159 4.0 8.0 0.00 0.00 0.00 80 1015.2
20260831054504 81 157 4.0 9.0 0.00 0.00 0.00 80 1015.2
20260831054004 81 156 5.0 10.0 0.00 0.00 0.00 79 1015.2
20260831053505 81 156 5.0 10.0 0.00 0.00 0.00 79 1015.1
20260831053025 81 157 5.0 8.0 0.00 0.00 0.00 78 1015.2
20260831052525 81 157 5.0 9.0 0.00 0.00 0.00 78 1015.2
20260831052025 81 157 5.0 10.0 0.00 0.00 0.00 77 1015.2
20260831051504 82 156 5.0 10.0 0.00 0.00 0.00 77 1015.1
20260831051005 82 155 4.0 7.0 0.00 0.00 0.00 76 1015.1
20260831050504 82 153 4.0 8.0 0.00 0.00 0.00 75 1015.0
20260831050005 82 151 5.0 8.0 0.00 0.00 0.00 75 1015.1
20260831045504 82 150 4.0 8.0 0.00 0.00 0.00 74 1015.0
20260831045004 82 151 4.0 8.0 0.00 0.00 0.00 73 1015.0
20260831044504 83 152 4.0 8.0 0.00 0.00 0.00 73 1015.0
20260831044004 83 150 4.0 7.0 0.00 0.00 0.00 72 1015.0
20260831043504 83 147 4.0 7.0 0.00 0.00 0.00 72 1014.9
20260831043004 83 145 4.0 7.0 0.00 0.00 0.00 72 1014.9
20260831042504 84 145 4.0 7.0 0.00 0.00 0.00 71 1014.9
20260831042004 84 148 4.0 8.0 0.00 0.00 0.00 71 1014.9
20260831041525 84 151 4.0 8.0 0.00 0.00 0.00 70 1014.9
20260831041004 84 147 4.0 8.0 0.00 0.00 0.00 70 1014.8
20260831040504 84 147 4.0 8.0 0.00 0.00 0.00 70 1014.8
20260831040004 84 147 5.0 9.0 0.00 0.00 0.00 69 1014.9
20260831035504 85 144 4.0 9.0 0.00 0.00 0.00 69 1014.8
20260831035004 85 146 4.0 11.0 0.00 0.00 0.00 68 1014.8
20260831034504 85 147 5.0 11.0 0.00 0.00 0.00 68 1014.8
20260831034004 85 149 6.0 11.0 0.00 0.00 0.00 68 1014.6
20260831033504 85 151 6.0 11.0 0.00 0.00 0.00 67 1014.5
20260831033004 86 151 6.0 11.0 0.00 0.00 0.00 67 1014.4
20260831032504 86 150 6.0 11.0 0.00 0.00 0.00 66 1014.5
20260831032004 86 147 6.0 12.0 0.00 0.00 0.00 66 1014.4
20260831031504 86 146 6.0 12.0 0.00 0.00 0.00 65 1014.4
20260831031004 87 145 6.0 12.0 0.00 0.00 0.00 64 1014.2
20260831030504 87 143 7.0 12.0 0.00 0.00 0.00 64 1014.2
20260831030004 87 145 6.0 12.0 0.00 0.00 0.00 64 1014.1
20260831025505 87 147 6.0 10.0 0.00 0.00 0.00 63 1014.0
20260831025004 87 146 6.0 11.0 0.00 0.00 0.00 63 1013.9
20260831024505 88 145 7.0 12.0 0.00 0.00 0.00 62 1013.9
20260831024004 88 144 7.0 12.0 0.00 0.00 0.00 61 1013.7
20260831023504 88 146 6.0 12.0 0.00 0.00 0.00 60 1013.6
20260831023004 88 149 5.0 12.0 0.00 0.00 0.00 59 1013.5
20260831022504 88 149 6.0 11.0 0.00 0.00 0.00 59 1013.5
20260831022004 89 150 6.0 11.0 0.00 0.00 0.00 58 1013.4
20260831021504 89 151 6.0 11.0 0.00 0.00 0.00 58 1013.3
20260831021004 89 150 6.0 11.0 0.00 0.00 0.00 57 1013.2
20260831020525 89 149 6.0 10.0 0.00 0.00 0.00 57 1013.0
20260831020004 90 150 6.0 11.0 0.00 0.00 0.00 57 1012.8
20260831015504 90 152 6.0 11.0 0.00 0.00 0.00 57 1012.8
20260831015004 90 153 6.0 12.0 0.00 0.00 0.00 56 1012.7
20260831014504 90 151 6.0 12.0 0.00 0.00 0.00 56 1012.7
20260831014004 90 153 5.0 10.0 0.00 0.00 0.00 57 1012.6
20260831013504 90 157 5.0 10.0 0.00 0.00 0.00 57 1012.6
20260831013004 90 156 5.0 9.0 0.00 0.00 0.00 57 1012.5
20260831012505 90 155 4.0 8.0 0.00 0.00 0.00 57 1012.4
20260831012025 90 149 4.0 8.0 0.00 0.00 0.00 57 1012.4
20260831011526 90 151 5.0 8.0 0.00 0.00 0.00 57 1012.3
20260831011004 90 158 4.0 8.0 0.00 0.00 0.00 58 1012.3
20260831010526 90 158 4.0 7.0 0.00 0.00 0.00 58 1012.3
20260831010004 90 154 4.0 7.0 0.00 0.00 0.00 58 1012.3
20260831005504 90 153 4.0 8.0 0.00 0.00 0.00 57 1012.3
20260831005004 91 152 5.0 8.0 0.00 0.00 0.00 57 1012.3
20260831004504 91 147 5.0 10.0 0.00 0.00 0.00 57 1012.2
20260831004004 91 145 6.0 10.0 0.00 0.00 0.00 57 1012.1
20260831003504 91 150 5.0 10.0 0.00 0.00 0.00 57 1012.1
20260831003025 91 155 6.0 11.0 0.00 0.00 0.00 57 1012.1
20260831002504 91 157 6.0 11.0 0.00 0.00 0.00 56 1012.0
20260831002004 92 162 7.0 12.0 0.00 0.00 0.00 55 1011.9
20260831001504 92 165 7.0 14.0 0.00 0.00 0.00 54 1011.9
20260831001005 93 160 8.0 14.0 0.00 0.00 0.00 54 1011.9
20260831000504 94 150 8.0 14.0 0.00 0.00 0.00 53 1011.8
20260831000004 94 142 6.0 12.0 0.00 0.00 0.00 50 1011.8
20260830235504 95 133 4.0 10.0 0.00 0.00 0.00 46 1011.7
20260830235004 95 125 3.0 10.0 0.00 0.00 0.00 46 1011.7
20260830234504 96 130 4.0 12.0 0.00 0.00 0.00 45 1011.6
20260830234004 96 129 6.0 12.0 0.00 0.00 0.00 45 1011.6
20260830233525 97 122 6.0 13.0 0.00 0.00 0.00 44 1011.6
20260830233004 98 111 4.0 13.0 0.00 0.00 0.00 44 1011.6
20260830232504 96 113 2.0 5.0 0.00 0.00 0.00 44 1011.6
20260830232004 96 147 3.0 6.0 0.00 0.00 0.00 45 1011.7
20260830231525 96 149 4.0 7.0 0.00 0.00 0.00 45 1011.8
20260830231005 96 137 3.0 7.0 0.00 0.00 0.00 45 1011.7
20260830230504 96 119 2.0 7.0 0.00 0.00 0.00 44 1011.8
20260830230025 96 95 2.0 6.0 0.00 0.00 0.00 45 1011.7
20260830225504 96 78 3.0 6.0 0.00 0.00 0.00 45 1011.8
20260830225004 96 83 3.0 7.0 0.00 0.00 0.00 45 1011.9
20260830224504 96 90 3.0 7.0 0.00 0.00 0.00 45 1011.8
20260830224004 96 98 3.0 8.0 0.00 0.00 0.00 45 1011.8
20260830223504 96 109 3.0 8.0 0.00 0.00 0.00 44 1011.9
20260830223004 96 116 3.0 9.0 0.00 0.00 0.00 44 1011.9
20260830222505 97 119 4.0 9.0 0.00 0.00 0.00 43 1011.9
20260830222004 98 123 5.0 9.0 0.00 0.00 0.00 42 1011.9
20260830221504 99 111 5.0 12.0 0.00 0.00 0.00 42 1011.8
20260830221004 99 95 5.0 12.0 0.00 0.00 0.00 41 1011.8
20260830220504 99 104 5.0 11.0 0.00 0.00 0.00 41 1011.9
20260830220004 100 94 5.0 11.0 0.00 0.00 0.00 40 1011.8
20260830215525 99 96 4.0 11.0 0.00 0.00 0.00 41 1011.9
20260830215004 99 160 4.0 8.0 0.00 0.00 0.00 41 1011.9
20260830214504 98 121 4.0 9.0 0.00 0.00 0.00 41 1011.9
20260830214005 98 100 4.0 9.0 0.00 0.00 0.00 42 1012.0
20260830213504 99 91 5.0 18.0 0.00 0.00 0.00 42 1012.1
20260830213004 99 166 5.0 18.0 0.00 0.00 0.00 42 1012.1
20260830212504 98 178 4.0 8.0 0.00 0.00 0.00 42 1012.2
20260830212004 98 159 4.0 12.0 0.00 0.00 0.00 41 1012.3
20260830211504 97 133 3.0 12.0 0.00 0.00 0.00 43 1012.5
20260830211004 97 144 2.0 7.0 0.00 0.00 0.00 41 1012.6
20260830210525 97 152 3.0 8.0 0.00 0.00 0.00 41 1012.6
20260830210004 96 122 4.0 11.0 0.00 0.00 0.00 44 1012.9
20260830205504 97 103 5.0 11.0 0.00 0.00 0.00 42 1013.0
20260830205004 98 97 6.0 14.0 0.00 0.00 0.00 42 1013.0
20260830204504 98 117 5.0 14.0 0.00 0.00 0.00 40 1013.1
20260830204004 98 178 4.0 11.0 0.00 0.00 0.00 43 1013.2
20260830203525 97 174 5.0 11.0 0.00 0.00 0.00 43 1013.3
20260830203004 97 170 4.0 8.0 0.00 0.00 0.00 43 1013.4
20260830202504 97 188 4.0 10.0 0.00 0.00 0.00 43 1013.4
20260830202004 98 176 5.0 10.0 0.00 0.00 0.00 41 1013.6
20260830201504 97 149 4.0 10.0 0.00 0.00 0.00 43 1013.5
20260830201004 96 139 3.0 8.0 0.00 0.00 0.00 44 1013.7
20260830200504 96 149 4.0 11.0 0.00 0.00 0.00 44 1013.8
20260830200004 96 151 5.0 11.0 0.00 0.00 0.00 44 1013.9
20260830195504 96 150 3.0 9.0 0.00 0.00 0.00 45 1014.0
20260830195004 96 185 3.0 8.0 0.00 0.00 0.00 46 1014.0
20260830194509 95 185 6.0 10.0 0.00 0.00 0.00 46 1014.1
20260830194004 96 156 6.0 11.0 0.00 0.00 0.00 45 1014.2
20260830193504 95 109 4.0 11.0 0.00 0.00 0.00 46 1014.3
20260830193004 95 120 4.0 10.0 0.00 0.00 0.00 47 1014.3
20260830192525 95 139 3.0 10.0 0.00 0.00 0.00 47 1014.4
20260830192004 95 90 5.0 11.0 0.00 0.00 0.00 47 1014.5
20260830191504 96 97 5.0 11.0 0.00 0.00 0.00 48 1014.6
20260830191004 96 140 4.0 11.0 0.00 0.00 0.00 47 1014.7
20260830190504 96 133 6.0 12.0 0.00 0.00 0.00 48 1014.8
20260830190025 95 118 4.0 12.0 0.00 0.00 0.00 49 1014.8
20260830185525 94 135 3.0 8.0 0.00 0.00 0.00 51 1014.9
20260830185004 94 159 4.0 11.0 0.00 0.00 0.00 51 1015.0
20260830184504 94 157 5.0 11.0 0.00 0.00 0.00 49 1015.2
20260830184004 94 142 5.0 11.0 0.00 0.00 0.00 49 1015.2
20260830183504 95 115 4.0 9.0 0.00 0.00 0.00 49 1015.3
20260830183025 95 132 4.0 9.0 0.00 0.00 0.00 50 1015.4
20260830182504 95 158 5.0 12.0 0.00 0.00 0.00 48 1015.3
20260830182004 96 153 5.0 12.0 0.00 0.00 0.00 49 1015.4
20260830181504 95 147 4.0 9.0 0.00 0.00 0.00 50 1015.5
20260830181005 95 160 3.0 9.0 0.00 0.00 0.00 50 1015.6
20260830180504 94 182 3.0 9.0 0.00 0.00 0.00 50 1015.7
20260830180004 94 182 4.0 11.0 0.00 0.00 0.00 51 1015.8
20260830175505 94 146 5.0 11.0 0.00 0.00 0.00 52 1016.0
20260830175004 94 132 4.0 11.0 0.00 0.00 0.00 50 1016.1
20260830174504 93 176 6.0 15.0 0.00 0.00 0.00 51 1016.2
20260830174025 93 184 6.0 15.0 0.00 0.00 0.00 51 1016.2
20260830173504 93 166 4.0 10.0 0.00 0.00 0.00 53 1016.2
20260830173004 92 138 3.0 9.0 0.00 0.00 0.00 54 1016.4
20260830172525 92 133 4.0 8.0 0.00 0.00 0.00 54 1016.4
20260830172004 93 171 4.0 8.0 0.00 0.00 0.00 54 1016.5
20260830171525 93 190 4.0 9.0 0.00 0.00 0.00 54 1016.5
20260830171004 92 178 3.0 9.0 0.00 0.00 0.00 56 1016.6
20260830170504 92 183 2.0 6.0 0.00 0.00 0.00 56 1016.6
20260830170025 91 173 3.0 8.0 0.00 0.00 0.00 56 1016.6
20260830165504 92 181 5.0 13.0 0.00 0.00 0.00 56 1016.7
20260830165004 91 195 5.0 13.0 0.00 0.00 0.00 55 1016.7
20260830164504 91 205 4.0 10.0 0.00 0.00 0.00 58 1016.7